HUBBLE
1 20580U 90037B 10096.10228843 .00000773 00000-0 46440-4 0 5465
2 20580 028.4699 350.4344 0003568 151.7519 208.3319 15.00940823893917
ISS
1 25544U 98067A 10098.86896992 .00023253 00000-0 16006-3 0 9356
2 25544 051.6458 226.4374 0005551 153.6324 356.1426 15.74509252652559
CO-58
1 28895U 05043F 10098.68829750 .00000405 00000-0 93779-4 0 5531
2 28895 098.0231 345.4309 0018732 140.6093 219.6444 14.59872629236845
FALCON
1 30776U 07006E 10097.43311821 .00001206 00000-0 89519-4 0 08068
2 30776 035.4326 113.8286 0001649 314.8561 045.2022 15.03572631169403
MAST
1 31126U 07012K 10098.62861755 .00000275 00000-0 72189-4 0 8366
2 31126 097.9451 144.2124 0095757 082.2065 278.9999 14.53572701157959
CAPE1
1 31130U 07012P 10097.09693798 .00000280 00000-0 74705-4 0 08565
2 31130 097.9508 140.3112 0104192 094.8648 266.4494 14.52157857157346
COMPASS
1 32787U 08021E 10098.68645918 .00001247 00000-0 16427-3 0 6403
2 32787 097.8986 164.3825 0016272 148.2954 211.9239 14.81822414105206
AAUSAT2
1 32788U 08021F 10097.75087755 .00001159 00000-0 15266-3 0 06345
2 32788 097.8999 163.5730 0015868 152.0781 208.1288 14.81958798105070
DO-64
1 32789U 08021G 10097.76575007 .00001873 00000-0 24189-3 0 06526
2 32789 097.9060 163.9838 0016249 150.2485 209.9656 14.82062823105073
CO-66
1 32791U 08021J 10097.21271582 .00000749 00000-0 10184-3 0 06318
2 32791 097.8996 162.9503 0016135 150.8574 209.3601 14.81613500104942
RS-30
1 32953U 08025A 10098.42540834 .00000010 00000-0 00000 0 0 5856
2 32953 082.4979 073.0549 0017274 255.1365 104.7800 12.43004713 85074
TACSAT-3
1 35001U 09028A 10097.94859470 .00012344 00000-0 29426-3 0 02589
2 35001 040.4562 275.8282 0020879 201.6136 158.3799 15.41085570049798
PHARMSAT
1 35002U 09028B 10097.86292862 .00010942 00000-0 25581-3 0 2442
2 35002 040.4697 274.6113 0024214 205.7662 154.1953 15.41674318 49794
HAWKSAT1
1 35003U 09028C 10097.83416732 .00022159 00000-0 47312-3 0 2588
2 35003 040.4577 271.4312 0021115 217.2077 142.7286 15.44059560 49839
CP6
1 35004U 09028D 10097.86381044 .00026351 00000-0 55058-3 0 02561
2 35004 040.4573 270.7824 0020380 219.4848 140.4491 15.44642324049838
AEROCUB3
1 35005U 09028E 10098.80297784 .00056845 00000-0 10800-2 0 2706
2 35005 040.4724 265.0324 0019566 228.1403 131.7764 15.47157148 49987
DRAGNSAT
1 35690U 09038B 10076.22711312 .05715194 12509-4 31481-3 0 3162
2 35690 051.6170 315.4586 0004999 310.9891 057.3269 16.42150010 36561
POLLUX
1 35693U 09038E 10087.99866888 .23496735 12787-4 17715-3 0 3529
2 35693 051.6099 254.5746 0006270 294.4866 097.5899 16.52338462 38395
CASTOR
1 35694U 09038F 10098.77091105 .00075915 13385-4 22285-3 0 2632
2 35694 051.6386 209.1601 0004118 304.2432 055.8175 15.92841645 39962
METEOR-M
1 35865U 09049A 10098.74780315 .00000176 00000-0 10000-3 0 1891
2 35865 098.7657 153.0185 0001920 189.1912 170.9195 14.21829466 28855
RS-38
1 35869U 09049E 10098.79704852 .00000177 00000-0 10000-3 0 1916
2 35869 098.7644 153.0947 0004032 198.4037 161.6986 14.21978826 28860
